Location: Newark
(44.2886°N, 4.8431°E)
Time: 04:03:01
(UTC+00:00)

AO-73 - Visible Passes

Search period start: 26 November 2020 00:00
Search period end: 06 December 2020 00:00
Orbit: 581 x 664 km, 97.6° (Epoch: 25 November)

Date Brightness Start Highest point End Pass type
(mag) Time Alt. Az. Time Alt. Az. Time Alt. Az.
26 Nov ? 04:57:29 10° NNE 05:01:35 58° E 05:05:42 10° S visible
26 Nov ? 17:32:08 10° SW 17:34:26 14° W 17:36:43 10° WNW visible
27 Nov ? 05:15:23 10° NNE 05:19:33 87° WNW 05:23:45 10° SSW visible
28 Nov ? 03:58:51 10° ENE 04:00:57 13° E 04:03:03 10° ESE visible
28 Nov ? 05:33:24 10° N 05:37:28 55° WNW 05:41:35 10° SSW visible
28 Nov ? 16:29:39 10° S 16:33:49 61° W 16:37:57 10° NNW visible
29 Nov ? 04:15:53 10° NE 04:19:04 21° E 04:22:16 10° SE visible
29 Nov ? 05:51:34 10° N 05:55:21 35° WNW 05:59:11 10° SW visible
29 Nov ? 16:47:53 10° SSW 16:51:49 38° W 16:55:43 10° NNW visible
30 Nov ? 04:33:22 10° NNE 04:37:08 32° E 04:40:56 10° SSE visible
30 Nov ? 06:09:51 10° NNW 06:13:11 23° WNW 06:16:32 10° WSW visible
30 Nov ? 17:06:25 10° SSW 17:09:52 25° W 17:13:18 10° NW visible
01 Dec ? 04:51:04 10° NNE 04:55:09 50° E 04:59:17 10° S visible
01 Dec ? 17:25:21 10° SW 17:27:57 16° W 17:30:33 10° NW visible
02 Dec ? 05:08:55 10° NNE 05:13:08 81° ESE 05:17:23 10° S visible
02 Dec ? 17:45:56 10° W 17:46:06 10° W 17:46:16 10° W visible
03 Dec ? 03:52:50 10° ENE 03:54:28 12° E 03:56:06 10° ESE visible
03 Dec ? 05:26:54 10° N 05:31:04 64° WNW 05:35:16 10° SSW visible
04 Dec ? 04:09:36 10° NE 04:12:35 19° E 04:15:37 10° SE visible
04 Dec ? 05:45:00 10° N 05:48:57 40° WNW 05:52:57 10° SW visible
04 Dec ? 16:41:22 10° S 16:45:21 44° W 16:49:19 10° NNW visible
05 Dec ? 04:27:00 10° NE 04:30:40 28° E 04:34:23 10° SSE visible
05 Dec ? 06:03:14 10° N 06:06:47 27° WNW 06:10:24 10° SW visible
05 Dec ? 16:59:48 10° SSW 17:03:23 28° W 17:06:57 10° NW visible
